Flag for Canada Weather past 2 weeks in Dawson Creek, British Columbia, Canada

Now
61 °F

Scattered clouds.


Feels Like: 61 °F
Forecast: 44 / 58 °F
Wind: 20 mph from Southwest

Location: Dawson Creek Airport

Current Time: Aug 31, 2015 at 3:10:09 PM

Latest Report: Aug 31, 2015 at 2:00 PM


Visibility: 9 mi

Pressure: 29.54 "Hg (27.29 "Hg at 668m altitude)

Humidity: 34%

Dew point: 32 °F

Location of Dawson CreekLocation

Historic Weather in Dawson Creek — Graph

°F

Dawson Creek temperature yesterday

Maximum temperature yesterday: 66 °F (at 3:00 PM)
Minimum temperature yesterday: 48 °F (at 12:00 AM)
Average temperature yesterday: 57 °F

Past Weeks' High & Low Weather Summary

 TemperatureHumidityPressure
High77 °F (Aug 27, 3:00 PM)100% (Aug 18, 2:00 AM)30.26 "Hg (Aug 18, 2:00 AM)
Low30 °F (Aug 22, 5:00 AM)18% (Aug 27, 3:00 PM)29.36 "Hg (Aug 31, 12:00 AM)
Average57 °F64%29.88 "Hg
* Reported Aug 16 2:00 PM — Aug 31 2:00 PM, Dawson Creek, Weather by CustomWeather, © 2015

Note: Actual official high and low records may vary slightly from our data, if they occured in-between our weather recording intervals... More about our weather records

Advertising

Dawson Creek weather history for previous 24 hours

 ConditionsComfort  
Time TempWeatherWind HumidityBarometerVisibility
2:00 PM
Mon, Aug 31
61 °FScattered clouds.20 mph34%29.54 "Hg9 mi
1:00 PM59 °FSunny.22 mph34%29.53 "Hg9 mi
12:00 PM61 °FSunny.26 mph34%29.51 "Hg9 mi
11:00 AM59 °FSunny.28 mph36%29.49 "Hg9 mi
10:00 AM57 °FSunny.22 mph39%29.49 "Hg9 mi
9:00 AM55 °FSunny.13 mph55%29.49 "Hg9 mi
8:00 AM52 °FSunny.8 mph67%29.49 "Hg9 mi
7:00 AM50 °FPassing clouds.12 mph67%29.49 "Hg9 mi
6:00 AM48 °FClear.9 mph76%29.45 "Hg9 mi
5:00 AM50 °FClear.8 mph67%29.43 "Hg9 mi
4:00 AM50 °FClear.9 mph67%29.41 "Hg9 mi
3:00 AM52 °FPassing clouds.10 mph67%29.39 "Hg9 mi
2:00 AM52 °FClear.9 mph67%29.36 "Hg9 mi
1:00 AM54 °FPassing clouds.12 mph58%29.36 "Hg9 mi
12:00 AM55 °FMostly cloudy.13 mph55%29.36 "Hg9 mi
11:00 PM
Sun, Aug 30
55 °FMostly cloudy.9 mph59%29.36 "Hg9 mi
10:00 PM54 °FOvercast.8 mph63%29.38 "Hg9 mi
9:00 PM55 °FMostly cloudy.8 mph59%29.40 "Hg9 mi
8:00 PM59 °FOvercast.13 mph48%29.40 "Hg9 mi
7:00 PM61 °FPassing clouds.10 mph45%29.40 "Hg9 mi
6:00 PM61 °FOvercast.13 mph45%29.43 "Hg9 mi
5:00 PM63 °FPartly sunny.10 mph39%29.42 "Hg9 mi
4:00 PM63 °FPartly sunny.12 mph39%29.44 "Hg9 mi
3:00 PM66 °FSunny.18 mph32%29.44 "Hg9 mi
Weather by CustomWeather, © 2015

See weather overviewHow to use our weather pages